[[{"header":{"parameterUnit":"m.s-1","parameterCategory":1,"la1":30.2991,"la2":30.254,"lo1":-89.0895,"lo2":-89.0444,"dy":0.0017,"dx":0.0017,"nx":28,"ny":28,"refTime":"2025-08-17T21:00:00:Z","depth":0,"parameterNumber":2,"parameterNumberName":"U-component_of_WINDS"},"data":[0,0,0,0,0,0,0,0,0,0,0,0,0,0,0,0,0,0,0,0,0,0,0,0,0,0,0,0,0,0,0,0,0,0,0,0,0,0,0,0,0,0,0,0,0,0,0,0,0,0,0,0,0,0,0,0,0,0,-0.1788,-0.1787,0,-0.1774,-0.1774,-0.1774,-0.1755,-0.1754,-0.1754,-0.1754,-0.1741,-0.1741,-0.1741,0,0,0,0,0,0,0,0,0,0,0,0,0,-0.1795,-0.1795,-0.1788,-0.1787,-0.1787,-0.1774,-0.1774,-0.1774,-0.1755,-0.1754,-0.1754,-0.1754,-0.1741,-0.1741,-0.1741,0,0,0,0,0,0,0,0,0,0,0,0,0,-0.1788,-0.1795,-0.1788,-0.1776,-0.1775,-0.1774,-0.1774,-0.1774,-0.1755,-0.1754,-0.1754,-0.1753,-0.1741,-0.1741,-0.1741,-0.1751,0,0,-0.1741,-0.1741,0,0,0,0,0,0,0,0,-0.1788,-0.1788,-0.1778,-0.1777,-0.1776,-0.1766,-0.1772,-0.1766,-0.1755,-0.1763,-0.1754,-0.1753,-0.175,-0.1749,-0.1747,-0.175,-0.1749,-0.1741,-0.1741,-0.1741,-0.1741,0,0,0,0,0,0,0,-0.1789,-0.1788,-0.1782,-0.1778,-0.1776,-0.1771,-0.177,-0.1771,-0.1759,-0.1762,-0.176,-0.1759,-0.1749,-0.1748,-0.1747,-0.1749,-0.1741,-0.1741,-0.1741,-0.174,-0.1758,-0.1759,0,0,0,0,0,0,-0.1791,-0.1789,-0.1783,-0.1782,-0.1781,-0.1772,-0.177,-0.1769,-0.1759,-0.1757,-0.176,-0.1758,-0.1748,-0.1747,-0.1746,-0.1757,-0.1741,-0.174,-0.174,-0.1758,-0.1758,-0.1759,0,0,0,0,0,0,-0.1791,-0.1791,-0.1783,-0.1785,-0.1784,-0.1772,-0.1772,-0.1769,-0.1768,-0.1757,-0.1755,-0.1761,-0.1747,-0.1746,-0.1749,-0.1756,-0.174,-0.174,-0.1757,-0.1758,-0.1758,-0.1779,0,0,0,0,0,0,-0.1792,-0.1791,-0.1795,-0.1785,-0.1784,-0.1787,-0.1772,-0.177,-0.1768,-0.1766,-0.1758,-0.1756,-0.1747,-0.175,-0.1749,-0.1756,-0.174,-0.1756,-0.1757,-0.1758,-0.1777,-0.178,-0.1782,0,0,0,0,0,-0.1792,-0.1802,-0.1795,-0.1795,-0.1788,-0.1787,-0.1786,-0.1776,-0.1769,-0.1772,-0.1765,-0.1756,-0.1755,-0.175,-0.175,-0.1756,-0.1756,-0.1757,-0.1758,-0.1776,-0.1779,-0.1782,0,0,0,0,0,0,-0.1813,-0.18,-0.1793,-0.18,-0.1795,-0.1784,-0.1789,-0.178,-0.1777,-0.1776,-0.1763,-0.1761,-0.1766,-0.1761,-0.1756,-0.1765,-0.1754,-0.1755,-0.1768,-0.1771,-0.1773,-0.1775,-0.174,0,0,0,0,0,-0.1818,-0.1819,-0.1807,-0.1814,-0.1812,-0.1801,-0.18,-0.1792,-0.1787,-0.1785,-0.1778,-0.1773,-0.1771,-0.177,-0.1769,-0.1776,-0.1774,-0.178,-0.1783,-0.1785,-0.1786,-0.1789,-0.1792,-0.1762,-0.1762,-0.1762,0,0,-0.183,-0.1822,-0.1824,-0.1818,-0.1813,-0.1814,-0.1799,-0.1801,-0.1801,-0.1785,-0.1787,-0.1782,-0.1775,-0.178,-0.1782,-0.1776,-0.1793,-0.1786,-0.1788,-0.1788,-0.179,-0.1793,-0.1796,-0.1763,-0.1763,-0.1763,0,0,-0.185,-0.1845,-0.185,-0.1845,-0.1838,-0.183,-0.1831,-0.1821,-0.1817,-0.1819,-0.1807,-0.1806,-0.1804,-0.18,-0.1798,-0.1815,-0.1806,-0.1814,-0.1828,-0.1831,-0.1833,-0.1835,-0.1841,-0.1843,-0.1815,-0.1815,-0.1815,0,-0.1866,-0.1866,-0.1854,-0.1855,-0.1853,-0.1838,-0.1842,-0.1838,-0.1831,-0.183,-0.1823,-0.1819,-0.1814,-0.1817,-0.1821,-0.182,-0.1821,-0.1816,-0.1833,-0.1835,-0.1837,-0.1843,-0.1845,-0.1816,-0.1816,-0.1816,-0.1816,0,-0.1885,-0.1885,-0.189,-0.1882,-0.188,-0.1884,-0.1871,-0.1871,-0.1863,-0.1855,-0.1857,-0.1849,-0.1845,-0.1845,-0.1838,-0.1848,-0.1844,-0.1836,-0.1825,-0.1841,-0.1846,-0.1848,-0.1818,-0.1818,-0.1817,-0.1817,0,0,-0.1921,-0.1905,-0.1907,-0.1903,-0.1893,-0.1893,-0.1895,-0.189,-0.189,-0.1885,-0.1886,-0.1884,-0.1875,-0.1873,-0.1864,-0.1866,-0.188,-0.1857,-0.1857,-0.1862,-0.189,-0.1898,-0.19,-0.1874,-0.1874,-0.1874,-0.1891,0,-0.194,-0.1943,-0.1931,-0.1937,-0.1937,-0.1921,-0.1922,-0.1916,-0.1909,-0.1907,-0.1899,-0.1898,-0.1887,-0.1885,-0.1886,-0.1878,-0.1886,-0.1877,-0.1875,-0.1875,-0.1878,-0.1903,-0.1911,-0.1927,-0.1893,-0.1893,-0.1894,0,-0.1964,-0.1959,-0.1965,-0.1953,-0.1953,-0.1955,-0.1949,-0.1948,-0.194,-0.1934,-0.193,-0.192,-0.192,-0.1909,-0.191,-0.1904,-0.1902,-0.1897,-0.1898,-0.1898,-0.1886,-0.1905,-0.1932,-0.1935,-0.1897,-0.1896,-0.1896,0,-0.199,-0.1985,-0.1987,-0.1984,-0.1971,-0.1973,-0.1967,-0.1958,-0.1956,-0.1951,-0.1949,-0.1944,-0.1942,-0.1938,-0.1926,-0.1919,-0.1928,-0.1916,-0.1924,-0.1924,-0.1928,-0.1928,-0.1956,-0.1925,-0.1925,-0.1925,-0.1925,0,-0.2013,-0.2018,-0.1999,-0.2001,-0.2005,-0.199,-0.1994,-0.1987,-0.1979,-0.1979,-0.1965,-0.1965,-0.1949,-0.1947,-0.1938,-0.194,-0.1938,-0.1934,-0.1932,-0.1936,-0.1937,-0.1936,-0.1934,-0.1926,-0.1925,-0.1925,-0.1925,0,-0.2044,-0.2032,-0.2033,-0.202,-0.2016,-0.202,-0.2008,-0.2009,-0.2,-0.2,-0.1999,-0.1985,-0.1982,-0.1969,-0.1963,-0.1957,-0.1962,-0.1957,-0.1965,-0.1963,-0.1972,-0.1972,-0.2001,-0.2004,-0.1971,-0.1971,-0.1971,0,-0.2061,-0.2063,-0.205,-0.2048,-0.2043,-0.2041,-0.2039,-0.2024,-0.2022,-0.2012,-0.2014,-0.2009,-0.2005,-0.2001,-0.199,-0.1985,-0.198,-0.1991,-0.1979,-0.1983,-0.1981,-0.1981,-0.1981,-0.1994,-0.1994,-0.1994,-0.1995,0,-0.2092,-0.2085,-0.2081,-0.2075,-0.2072,-0.2067,-0.2061,-0.2061,-0.2044,-0.2042,-0.2038,-0.2035,-0.2028,-0.2024,-0.2017,-0.2011,-0.2,-0.1998,-0.2,-0.2005,-0.2009,-0.2007,-0.1972,-0.1998,-0.1998,-0.1997,-0.1997,-0.1997,-0.2116,-0.2118,-0.2108,-0.2104,-0.2098,-0.2092,-0.2092,-0.2082,-0.2079,-0.2072,-0.2063,-0.206,-0.2051,-0.204,-0.2035,-0.2032,-0.2026,-0.2029,-0.2029,-0.2031,-0.2033,-0.2009,-0.2031,-0.2031,-0.2031,-0.2031,-0.203,0,-0.2147,-0.2139,-0.2136,-0.2127,-0.2124,-0.2113,-0.2105,-0.2104,-0.2101,-0.2093,-0.2089,-0.2084,-0.208,-0.2068,-0.2062,-0.2062,-0.2057,-0.2061,-0.2061,-0.206,-0.2038,-0.2038,-0.2065,-0.2065,-0.2065,-0.2065,-0.2065,-0.2065,-0.2163,-0.2164,-0.2156,-0.2154,-0.2146,-0.2144,-0.214,-0.2134,-0.2128,-0.2123,-0.2119,-0.2111,-0.2101,-0.2094,-0.2089,-0.2085,-0.2084,-0.209,-0.2085,-0.2065,-0.2062,-0.2059,-0.2058,-0.209,-0.209,-0.2107,-0.2107,-0.2108]},{"header":{"parameterUnit":"m.s-1","parameterCategory":1,"la1":30.2991,"la2":30.254,"lo1":-89.0895,"lo2":-89.0444,"dy":0.0017,"dx":0.0017,"nx":28,"ny":28,"refTime":"2025-08-17T21:00:00:Z","depth":0,"parameterNumber":3,"parameterNumberName":"V-component_of_WINDS"},"data":[0,0,0,0,0,0,0,0,0,0,0,0,0,0,0,0,0,0,0,0,0,0,0,0,0,0,0,0,0,0,0,0,0,0,0,0,0,0,0,0,0,0,0,0,0,0,0,0,0,0,0,0,0,0,0,0,0,0,-2.2641,-2.2642,0,-2.2698,-2.2699,-2.2699,-2.2688,-2.2687,-2.2686,-2.2685,-2.2739,-2.2741,-2.2744,0,0,0,0,0,0,0,0,0,0,0,0,0,-2.2521,-2.2523,-2.2641,-2.2642,-2.2643,-2.2698,-2.2699,-2.2699,-2.2688,-2.2687,-2.2685,-2.2684,-2.2738,-2.2741,-2.2744,0,0,0,0,0,0,0,0,0,0,0,0,0,-2.2575,-2.2524,-2.2641,-2.2644,-2.2645,-2.2698,-2.2699,-2.27,-2.2688,-2.2687,-2.2685,-2.2684,-2.2737,-2.2741,-2.2744,-2.2797,0,0,-2.2755,-2.2757,0,0,0,0,0,0,0,0,-2.2572,-2.2579,-2.2643,-2.2644,-2.2645,-2.2684,-2.2676,-2.2732,-2.2689,-2.2672,-2.2685,-2.2683,-2.2722,-2.2727,-2.274,-2.28,-2.2802,-2.2756,-2.2758,-2.2759,-2.276,0,0,0,0,0,0,0,-2.2568,-2.2577,-2.2664,-2.2644,-2.2645,-2.2641,-2.2647,-2.2687,-2.2704,-2.2673,-2.2672,-2.2679,-2.2722,-2.2737,-2.2742,-2.2803,-2.2755,-2.2759,-2.2761,-2.2762,-2.291,-2.2911,0,0,0,0,0,0,-2.2564,-2.2574,-2.2662,-2.2665,-2.2604,-2.2645,-2.2651,-2.2673,-2.2704,-2.2707,-2.2681,-2.2679,-2.2732,-2.2737,-2.2743,-2.2809,-2.2759,-2.2763,-2.2765,-2.2908,-2.291,-2.2912,0,0,0,0,0,0,-2.2561,-2.2572,-2.266,-2.2619,-2.263,-2.2648,-2.2673,-2.2675,-2.269,-2.271,-2.2713,-2.2693,-2.2731,-2.2738,-2.2785,-2.281,-2.2764,-2.2767,-2.2906,-2.2909,-2.2911,-2.2939,0,0,0,0,0,0,-2.2558,-2.2571,-2.2592,-2.262,-2.2633,-2.2701,-2.2675,-2.2677,-2.2697,-2.2695,-2.2722,-2.2725,-2.273,-2.2779,-2.2788,-2.2814,-2.277,-2.2904,-2.2907,-2.291,-2.2936,-2.2942,-2.2947,0,0,0,0,0,-2.2553,-2.2596,-2.2593,-2.2604,-2.2659,-2.2702,-2.2709,-2.2715,-2.2699,-2.272,-2.2733,-2.2724,-2.2806,-2.2784,-2.2794,-2.2822,-2.2902,-2.2906,-2.291,-2.2933,-2.2941,-2.2947,0,0,0,0,0,0,-2.2569,-2.26,-2.2597,-2.265,-2.2674,-2.27,-2.2727,-2.2723,-2.2751,-2.2748,-2.2752,-2.2759,-2.2806,-2.2818,-2.2793,-2.2875,-2.2852,-2.2858,-2.2866,-2.2873,-2.2879,-2.2875,-2.2773,0,0,0,0,0,-2.2579,-2.2612,-2.2637,-2.2681,-2.2694,-2.2708,-2.2727,-2.273,-2.2754,-2.2764,-2.278,-2.2803,-2.2834,-2.2854,-2.2883,-2.2937,-2.2943,-2.2961,-2.2967,-2.2972,-2.2977,-2.3008,-2.3016,-2.2925,-2.2925,-2.2925,0,0,-2.2599,-2.262,-2.264,-2.2685,-2.2704,-2.2738,-2.2717,-2.2753,-2.2778,-2.2769,-2.2814,-2.2827,-2.2853,-2.2903,-2.2926,-2.2915,-2.3004,-2.2977,-2.2981,-2.2983,-2.3012,-2.3021,-2.3029,-2.2928,-2.2927,-2.2927,0,0,-2.2653,-2.2672,-2.2712,-2.2732,-2.2761,-2.2771,-2.2781,-2.2808,-2.2817,-2.2863,-2.2857,-2.2886,-2.2939,-2.2958,-2.2975,-2.3038,-2.3032,-2.3047,-2.3078,-2.3108,-2.3115,-2.3122,-2.3145,-2.3153,-2.3053,-2.3053,-2.3053,0,-2.2674,-2.2726,-2.2733,-2.2771,-2.2791,-2.2786,-2.2826,-2.2844,-2.2881,-2.2895,-2.2882,-2.2949,-2.2966,-2.3022,-2.3038,-2.3051,-2.3062,-2.3044,-2.3114,-2.312,-2.3126,-2.3149,-2.3157,-2.3054,-2.3054,-2.3054,-2.3054,0,-2.2751,-2.2787,-2.2816,-2.2854,-2.2877,-2.2915,-2.2927,-2.295,-2.2951,-2.2962,-2.3009,-2.3029,-2.3063,-2.3076,-2.3077,-2.3132,-2.3125,-2.3113,-2.3089,-2.3137,-2.3158,-2.3166,-2.3057,-2.3056,-2.3056,-2.3055,0,0,-2.2816,-2.2858,-2.2869,-2.2887,-2.2919,-2.2947,-2.2985,-2.302,-2.304,-2.3065,-2.3098,-2.3144,-2.3134,-2.3152,-2.3155,-2.3181,-2.3231,-2.3166,-2.3167,-2.3178,-2.3294,-2.3304,-2.3314,-2.3227,-2.3228,-2.323,-2.3293,0,-2.2874,-2.2944,-2.2951,-2.3013,-2.3047,-2.3043,-2.3077,-2.31,-2.3111,-2.3141,-2.3153,-2.3186,-2.3169,-2.3181,-2.3206,-2.3219,-2.3254,-2.3215,-2.3257,-2.3258,-2.3251,-2.3324,-2.3334,-2.3393,-2.3301,-2.3302,-2.3303,0,-2.2951,-2.2981,-2.3047,-2.3076,-2.3091,-2.3121,-2.3154,-2.3183,-2.3209,-2.3215,-2.3238,-2.3237,-2.3276,-2.3251,-2.3306,-2.3279,-2.3296,-2.3305,-2.3308,-2.3312,-2.3284,-2.3332,-2.3411,-2.342,-2.3316,-2.3315,-2.3314,0,-2.2993,-2.305,-2.3097,-2.3112,-2.3147,-2.3169,-2.3184,-2.3209,-2.323,-2.3259,-2.3273,-2.3305,-2.3322,-2.3347,-2.3355,-2.3336,-2.341,-2.3385,-2.3416,-2.3416,-2.3432,-2.3431,-2.3516,-2.3442,-2.3442,-2.3442,-2.3441,0,-2.3057,-2.3098,-2.3117,-2.3146,-2.3191,-2.3199,-2.3244,-2.3258,-2.328,-2.3312,-2.3309,-2.3338,-2.3347,-2.3378,-2.3384,-2.3429,-2.3436,-2.3442,-2.3444,-2.3443,-2.3442,-2.3455,-2.3451,-2.3444,-2.3443,-2.3443,-2.3443,0,-2.3112,-2.3126,-2.3177,-2.3207,-2.3216,-2.3248,-2.3273,-2.3301,-2.3312,-2.3352,-2.3361,-2.3379,-2.3415,-2.3426,-2.3468,-2.3472,-2.3525,-2.3522,-2.3517,-2.3517,-2.3548,-2.3545,-2.3645,-2.3658,-2.3574,-2.3575,-2.3576,0,-2.3152,-2.3184,-2.3218,-2.324,-2.3257,-2.3291,-2.3313,-2.3322,-2.3345,-2.3379,-2.3402,-2.3438,-2.3468,-2.3525,-2.3541,-2.3574,-2.3572,-2.3605,-2.3577,-2.3576,-2.3574,-2.3572,-2.3576,-2.361,-2.3611,-2.3612,-2.3612,0,-2.3223,-2.3229,-2.3262,-2.3298,-2.3324,-2.3352,-2.3379,-2.3397,-2.341,-2.3436,-2.3473,-2.3496,-2.3541,-2.3577,-2.3611,-2.3625,-2.3621,-2.3621,-2.363,-2.363,-2.3626,-2.363,-2.3532,-2.3619,-2.3618,-2.3618,-2.3617,-2.3617,-2.3273,-2.3301,-2.333,-2.3367,-2.3389,-2.3414,-2.3442,-2.3458,-2.349,-2.3529,-2.3532,-2.3573,-2.3599,-2.3644,-2.3661,-2.3692,-2.3683,-2.3695,-2.3699,-2.3702,-2.3705,-2.3621,-2.3698,-2.3698,-2.3698,-2.3698,-2.3698,0,-2.3344,-2.3363,-2.3397,-2.3436,-2.3465,-2.346,-2.349,-2.3514,-2.3551,-2.3576,-2.3606,-2.365,-2.3685,-2.3704,-2.3739,-2.3761,-2.376,-2.377,-2.3768,-2.3772,-2.3711,-2.3701,-2.377,-2.377,-2.377,-2.377,-2.377,-2.377,-2.3385,-2.3433,-2.3443,-2.3502,-2.352,-2.3562,-2.3579,-2.3603,-2.3623,-2.3673,-2.3703,-2.3716,-2.3739,-2.3776,-2.3808,-2.3812,-2.3825,-2.3837,-2.384,-2.3783,-2.3776,-2.3769,-2.3759,-2.3839,-2.3839,-2.3898,-2.3899,-2.3899]}]]